Regional Weather Roundup
Issued by NWS Sioux Falls, SD

Home | Current Version | Previous Version | Text Only | Print | Product List | Glossary On
Versions: 1 2 3 4 5 6 7 8 9 10 11 12 13 14 15 16 17 18 19 20 21 22 23 24 25 26 27 28 29 30 31 32 33 34 35 36 37 38 39 40 41 42 43 44 45 46 47 48 49 50
729
ASUS43 KFSD 221610
RWRFSD

WEATHER ROUNDUP FOR SE SOUTH DAKOTA/SW MINNESOTA/NW IOWA
NATIONAL WEATHER SERVICE SIOUX FALLS SD
1100 AM CDT FRI MAY 22 2015

NOTE: "FAIR" INDICATES FEW OR NO CLOUDS BELOW 12,000 FEET WITH NO
SIGNIFICANT WEATHER AND OR OBSTRUCTIONS TO VISIBILITY.


SDZ038>040-050-052>070-221700-
SOUTHEAST SOUTH DAKOTA

CITY           SKY/WX    TMP DP  RH WIND       PRES   REMARKS
BROOKINGS      SUNNY     66  39  37 SE7       30.22R
CHAMBERLAIN    MOSUNNY   66  41  41 E8        30.18S
HURON          SUNNY     69  38  32 SW3       30.19S
MADISON        FAIR      68  36  30 CALM      30.21S
MITCHELL       SUNNY     68  41  37 SE5       30.20F
SIOUX FALLS    PTSUNNY   71  40  32 NE5       30.21S
WINNER         FAIR      66  38  35 SE14G21   30.18S
YANKTON        MOSUNNY   64  39  39 CALM      30.20S
$$

MNZ071-072-080-081-089-090-097-098-221700-
SOUTHWEST MINNESOTA

CITY           SKY/WX    TMP DP  RH WIND       PRES   REMARKS
FAIRMONT       SUNNY     68  34  28 E6        30.21F
JACKSON        SUNNY     68  32  26 CALM      30.23R
LUVERNE        SUNNY     70  32  24 SE3       30.22S
MARSHALL       SUNNY     66  36  32 CALM      30.21S
MONTEVIDEO     SUNNY     70  37  30 SE3       30.21F
PIPESTONE      SUNNY     68  32  26 SE6       30.21S
REDWOOD FALLS  SUNNY     67  33  28 S3        30.21F
TRACY          SUNNY     67  37  32 CALM      30.22S
WORTHINGTON    SUNNY     66  34  30 SW6       30.22S
$$

IAZ001>003-012>014-020>022-031-032-NEZ013-014-SDZ071-221700-
NORTHWEST IOWA

CITY           SKY/WX    TMP DP  RH WIND       PRES   REMARKS
CHEROKEE       SUNNY     68  40  35 CALM      30.22S
DENISON        MOSUNNY   68  45  42 CALM      30.20S
ESTHERVILLE    SUNNY     68  37  32 N5        30.22R
LE MARS        MOSUNNY   68  41  37 CALM      30.22S
ORANGE CITY    MOSUNNY   68  39  34 E3        30.21F
SHELDON        SUNNY     70  36  28 S6        30.21S
SIOUX CITY     MOSUNNY   69  41  36 CALM      30.22F
SPENCER        SUNNY     69  36  29 CALM      30.22S
STORM LAKE     SUNNY     68  32  26 SE3       30.22F
$$

ABBREVIATIONS USED IN REMARKS
   TC - TEMPERATURE IN CELSIUS
  WCI - WIND CHILL INDEX
   HX - HEAT INDEX
  VSB - VISIBILITY




USA.gov is the U.S. government's official web portal to all federal, state and local government web resources and services.